DRBK1: Arkansas River, Derby, KS

Data processed at Fri Dec 08 2017 23:04


All information presented herein is the property of the government of the United States of America and may be revised or deleted at any time without prior notice.
Dissemination of this information without the expressed written consent of the Public Affairs Office, Tulsa District U.S. Army Corps of Engineers is strictly prohibited.
These data are gathered electronically and, as presented, have not undergone any form of quality control. These data are not guaranteed to be valid or correct.
Go to home page.
Go to station list.

Upstream stations:

Downstream station:
Previous Day
Next Day
Current Day
    
SHEF ID:       DRBK1     ARKANSAS R AT DERBY, KS
STATION TYPE:  

               PRECIP     STAGE  RIV-FLOW  BAT-LOAD
                   in        ft       cfs      volt
              Ccp-Rev   Ccp-Rev   Ccp-Rev   Ccp-Rev
(US/Central)
12/06 00:00      ----      1.51       317     12.65
12/06 01:00      ----      1.51       317     12.65
12/06 02:00      ----      1.50       312     12.65
12/06 03:00      ----      1.51       317     12.65
12/06 04:00      ----      1.52       321     12.57
12/06 05:00      ----      1.51       317     12.57
12/06 06:00      ----      1.51       317     12.17
12/06 07:00      ----      1.50       312     12.57
12/06 08:00      ----      1.49       307     12.57
12/06 09:00      ----      1.46       293     12.65
12/06 10:00      ----      1.46       293     13.76
12/06 11:00      ----      1.46       293     13.29
12/06 12:00      ----      1.47       297     13.29
12/06 13:00      ----      1.48       302     13.21
12/06 14:00      ----      1.49       307     12.89
12/06 15:00      ----      1.50       312     13.13
12/06 16:00      ----      1.51       317     13.05
12/06 17:00      ----      1.52       321     13.05
12/06 18:00      ----      1.53       326     12.89
12/06 19:00      ----      1.53       326     12.81
12/06 20:00      ----      1.51       317     12.81
12/06 21:00      ----      1.49       307     12.81
12/06 22:00      ----      1.49       307     12.41
12/06 23:00      ----      1.49       307     12.73